Tracking 19909 objects as of 21-Oct-2019
HD Live streaming from Space Station
objects crossing your sky now

DELTA 1 DEB

Track DELTA 1 DEB now!
10-day predictions


NORAD ID: 12211
Int'l Code: 1978-026BC
Perigee: 792.5 km
Apogee: 968.2 km
Inclination: 99.4 °
Period: 102.4 minutes
Semi major axis: 7251 km
RCS: 0.0111 m2 (small)
Launch date: March 5, 1978
Source: United States (US)
Launch site: AIR FORCE WESTERN TEST RANGE (AFWTR)

Note: This is SATELLITE DEBRIS
aabbcc
Your satellite tracking list
Your tracking list is empty




NASA's NSSDC Master Catalog

Two Line Element Set (TLE):
1 12211U 78026BC  19293.93506872 +.00000046 +00000-0 +53691-4 0  9992
2 12211 099.3551 106.6348 0121145 340.2867 019.3638 14.05969217977730
Source of the keplerian elements: AFSPC